This demonstration page uses our WeatherBlox Daily Observations layout. Learn more.

Left ArrowRight Arrow

39.29038, -76.61219

Hourly Observations for June 22, 2020

Temp ( °F °C ) Dew Point ( °F °C ) Humidity (%) Winds ( mph kmh ) Pressure ( in mb ) Visibility ( mi km ) Precip ( " mm )
12:54 am 00:54 Mostly Clear 71 21.7 66 18.9 84 84 Calm 29.97 1015 10 16 0.00 0.00
1:54 am 01:54 Mostly Clear 71 21.7 66 18.9 84 84 Calm 29.97 1015 10 16 0.00 0.00
2:54 am 02:54 Mostly Clear 69 20.6 65 18.3 87 87 Calm 29.97 1015 10 16 0.00 0.00
3:54 am 03:54 Mostly Clear 69 20.6 65 18.3 87 87 Calm 29.97 1015 10 16 0.00 0.00
4:54 am 04:54 Mostly Clear 69 20.6 66 18.9 90 90 SSW 3 6 29.97 1015 10 16 0.00 0.00
5:54 am 05:54 Partly Cloudy 68 20 65 18.3 90 90 Calm 29.97 1015 10 16 0.00 0.00
6:54 am 06:54 Partly Cloudy 70 21.1 67 19.4 90 90 Calm 29.98 1015 10 16 0.00 0.00
7:54 am 07:54 Mostly Sunny 74 23.3 68 20 82 82 SSW 3 6 29.98 1015 10 16 0.00 0.00
8:54 am 08:54 Mostly Sunny 78 25.6 69 20.6 74 74 Calm 29.98 1015 10 16 0.00 0.00
9:54 am 09:54 Mostly Sunny 82 27.8 70 21.1 67 67 SSW 7 11 29.98 1015 10 16 0.00 0.00
10:54 am 10:54 Partly Cloudy 85 29.4 70 21.1 61 61 SSW 8 13 29.97 1015 10 16 0.00 0.00
11:54 am 11:54 Partly Cloudy 87 30.6 70 21.1 57 57 VRB 3 6 29.96 1015 10 16 0.00 0.00
12:54 pm 12:54 Partly Cloudy 87 30.6 70 21.1 57 57 S 6 9 29.94 1014 10 16 0.00 0.00
1:54 pm 13:54 Partly Cloudy 89 31.7 71 21.7 55 55 SE 6 9 29.91 1013 10 16 0.00 0.00
2:54 pm 14:54 Partly Cloudy 88 31.1 72 22.2 59 59 SE 12 19 29.89 1012 10 16 0.00 0.00
3:54 pm 15:54 Partly Cloudy 87 30.6 71 21.7 59 59 SSE 9 15 29.86 1011 10 16 0.00 0.00
4:54 pm 16:54 Mostly Cloudy 86 30 70 21.1 59 59 SSE 8 13 29.85 1011 10 16 0.00 0.00
5:39 pm 17:39 Cloudy with Thunderstorms 80 26.7 68 20 67 67 WNW 18 30 29.89 1012 10 16 0.00 0.00
5:54 pm 17:54 Cloudy with Thunderstorms 74 23.3 66 18.9 76 76 WNW 17 28 29.89 1012 10 16 0.00 0.00
6:43 pm 18:43 Cloudy 73 22.8 67 19.4 81 81 Calm 29.88 1012 10 16 0.00 0.00
6:54 pm 18:54 Cloudy 74 23.3 67 19.4 79 79 Calm 29.88 1012 10 16 0.00 0.00
7:54 pm 19:54 Cloudy 76 24.4 68 20 77 77 SSE 3 6 29.92 1013 10 16 0.00 0.00
8:54 pm 20:54 Cloudy with Light Rain 74 23.3 69 20.6 85 85 SW 5 7 29.92 1013 10 16 0.00 0.00
9:54 pm 21:54 Cloudy 74 23.3 65 18.3 74 74 SW 5 7 29.90 1012 10 16 0.00 0.00
10:54 pm 22:54 Mostly Cloudy 73 22.8 65 18.3 76 76 SSE 5 7 29.89 1012 10 16 0.00 0.00
11:54 pm 23:54 Mostly Cloudy 71 21.7 65 18.3 81 81 Calm 29.88 1012 10 16 0.00 0.00

Powered by AerisWeather